GW4712 Weather Reports


time (UTC)temp
F
wind
direction
speed
knots
gust
knots
rain 1hr
in
rain 24hr
in
rain mn
in
humidity
%
barometer
mb
20260506082314 57 319 3.5 3.5 0.00 0.03 0.03 99 1008.6
20260506081811 57 325 0.0 0.0 0.07 0.03 0.03 99 1008.2
20260506081309 57 325 0.0 0.0 0.07 0.03 0.03 99 1007.9
20260506080806 57 325 0.0 0.0 0.00 0.02 0.02 98 1008.0
20260506080302 57 325 0.0 0.0 0.00 0.02 0.02 98 1007.8
20260506073246 57 325 0.0 0.0 0.00 0.01 0.01 98 1007.6
20260506072743 57 325 0.0 0.0 0.07 0.01 0.01 98 1007.6
20260506072241 57 325 0.0 1.7 0.00 0.00 0.00 98 1007.9
20260506071738 57 325 0.0 0.0 0.00 0.00 0.00 98 1007.8
20260506071236 57 325 0.0 0.0 0.00 0.00 0.00 98 1007.9
20260506070733 57 325 0.0 0.9 0.00 0.00 0.00 98 1007.9
20260506070230 57 325 0.0 0.0 0.00 0.00 0.00 98 1007.8
20260506062207 57 325 0.0 0.0 0.00 0.00 0.00 97 1007.9
20260506061702 57 325 0.0 0.0 0.00 0.00 0.00 97 1007.8
20260506061159 57 325 0.0 0.0 0.00 0.00 0.00 97 1008.0
20260506060659 57 325 0.0 0.0 0.00 0.00 0.00 97 1008.1
20260506060155 58 325 0.0 0.0 0.00 0.00 0.00 97 1008.3
20260506051126 58 325 0.0 0.0 0.00 0.00 0.00 95 1008.7
20260506050625 58 325 0.0 0.0 0.00 0.00 0.00 94 1008.8
20260506050122 58 325 0.0 0.0 0.00 0.00 0.00 94 1009.1
20260506045115 58 325 0.0 0.0 0.00 0.00 0.00 92 1009.0
20260506044613 58 325 0.0 0.0 0.00 0.00 0.00 92 1008.8
20260506044109 58 325 0.0 0.0 0.00 0.00 0.00 92 1009.0
20260506043607 58 325 0.0 0.0 0.00 0.00 0.00 91 1009.4
20260506043105 58 325 0.0 0.0 0.00 0.00 0.00 91 1009.0
20260506042604 59 325 0.0 0.0 0.00 0.00 0.00 90 1009.2
20260506042101 59 325 0.0 0.0 0.00 0.00 0.00 89 1009.1
20260506041600 59 325 0.0 0.0 0.00 0.00 0.00 88 1009.4
20260506041056 59 325 0.0 0.0 0.00 0.00 0.00 87 1009.4
20260506040554 60 325 0.0 0.0 0.00 0.00 0.00 86 1009.5
20260506040050 60 325 0.0 0.0 0.00 0.00 0.00 85 1009.6
20260506035548 60 325 0.0 0.0 0.00 0.00 0.00 85 1009.5
20260506035044 60 325 0.0 0.0 0.00 0.00 0.00 84 1009.6
20260506034541 60 325 0.0 0.9 0.00 0.00 0.00 82 1009.2
20260506034038 60 325 0.0 0.0 0.00 0.00 0.00 82 1009.1
20260506033535 61 325 0.0 0.0 0.00 0.00 0.00 82 1009.1
20260506033032 61 325 0.0 0.0 0.00 0.00 0.00 80 1008.7
20260506032530 60 324 0.0 0.0 0.00 0.00 0.00 81 1009.2
20260506032026 61 325 0.0 0.0 0.00 0.00 0.00 82 1008.9
20260506031524 61 325 0.0 0.0 0.00 0.00 0.00 81 1009.1
20260506031021 60 324 0.0 0.9 0.00 0.00 0.00 83 1009.2
20260506030519 61 324 0.9 0.9 0.00 0.00 0.00 84 1009.5
20260506030016 61 324 0.9 0.9 0.00 0.00 0.00 79 1009.2
20260506025513 61 325 0.0 0.0 0.00 0.00 0.00 78 1009.1
20260506025009 62 325 0.0 0.0 0.00 0.00 0.00 79 1009.1
20260506024507 62 325 0.0 0.0 0.00 0.00 0.00 80 1009.0
20260506024002 62 325 0.0 0.9 0.00 0.00 0.00 78 1009.1
20260506023459 62 314 0.0 1.7 0.00 0.00 0.00 76 1009.0
20260506022955 62 311 1.7 1.7 0.00 0.00 0.00 77 1008.9
20260506022453 62 170 0.0 0.0 0.00 0.00 0.00 73 1008.9
20260506021950 62 169 0.0 0.0 0.00 0.00 0.00 74 1008.8
20260506021448 63 169 0.0 0.0 0.00 0.00 0.00 76 1008.9
20260506020945 63 169 0.0 0.0 0.00 0.00 0.00 77 1009.2
20260506020443 63 169 0.0 0.0 0.00 0.00 0.00 73 1009.6
20260506015939 63 169 0.0 0.0 0.00 0.00 0.00 72 1009.4
20260506015437 64 170 0.0 0.0 0.00 0.00 0.00 72 1009.4
20260506014934 64 170 0.0 0.0 0.00 0.00 0.00 68 1009.1
20260506014431 64 169 0.0 0.0 0.00 0.00 0.00 65 1009.1
20260506013927 65 144 0.0 0.0 0.00 0.00 0.00 66 1009.1
20260506013425 66 277 0.0 0.9 0.00 0.00 0.00 64 1009.0
20260506012921 67 277 0.0 0.0 0.00 0.00 0.00 57 1009.2
20260506012418 69 278 0.0 0.9 0.00 0.00 0.00 52 1009.4
20260506011915 71 277 0.9 1.7 0.00 0.00 0.00 48 1009.5
20260506011412 71 243 3.5 6.1 0.00 0.00 0.00 45 1009.6
20260506010909 71 319 1.7 6.1 0.00 0.00 0.00 46 1009.6
20260506010407 71 191 1.7 7.8 0.00 0.00 0.00 47 1009.6
20260506005903 71 291 3.5 5.2 0.00 0.00 0.00 48 1009.7
20260506005401 71 258 3.5 7.0 0.00 0.00 0.00 47 1009.8
20260506004856 70 299 3.5 8.7 0.00 0.00 0.00 49 1009.7
20260506004355 64 305 0.9 0.9 0.00 0.00 0.00 75 1009.8
20260506003850 64 220 0.0 0.0 0.00 0.00 0.00 73 1009.7
20260506003346 64 221 0.0 0.0 0.00 0.00 0.00 72 1009.5
20260506002843 65 220 0.0 0.0 0.00 0.00 0.00 71 1009.6
20260506002340 65 220 0.0 0.0 0.00 0.00 0.00 72 1009.4
20260506001835 65 220 0.0 0.0 0.00 0.00 0.00 71 1009.3
20260506001332 65 220 0.0 0.0 0.00 0.00 0.00 69 1009.3
20260506000829 66 220 0.0 0.0 0.00 0.00 0.00 67 1009.4
20260506000329 66 220 0.0 0.9 0.00 0.00 0.00 68 1009.4
20260505235824 67 220 0.0 0.0 0.00 0.00 0.00 66 1009.4
20260505235321 67 221 0.0 0.0 0.00 0.00 0.00 65 1009.4
20260505234818 67 221 0.0 0.0 0.00 0.00 0.00 65 1009.4
20260505234316 68 222 0.0 0.0 0.00 0.00 0.00 63 1009.3
20260505233813 68 222 0.0 1.7 0.00 0.00 0.00 62 1009.3
20260505233310 69 309 0.0 0.0 0.00 0.00 0.00 60 1009.4
20260505232807 70 310 0.0 0.9 0.00 0.00 0.00 56 1009.3
20260505232305 71 311 0.0 0.0 0.00 0.00 0.00 54 1009.2
20260505231801 72 311 0.0 0.0 0.00 0.00 0.00 52 1009.0
20260505231300 73 307 1.7 1.7 0.00 0.00 0.00 43 1009.2
20260505230758 73 217 0.0 1.7 0.00 0.00 0.00 43 1009.1
20260505230254 73 311 1.7 2.6 0.00 0.00 0.00 43 1009.4
20260505225751 73 312 1.7 3.5 0.00 0.00 0.00 42 1009.5
20260505225249 73 310 2.6 6.1 0.00 0.00 0.00 41 1009.5
20260505224743 74 308 3.5 7.0 0.00 0.00 0.00 43 1009.5
20260505224241 74 317 0.9 2.6 0.00 0.00 0.00 43 1009.4
20260505223738 74 311 1.7 5.2 0.00 0.00 0.00 41 1009.4
20260505223234 74 211 3.5 5.2 0.00 0.00 0.00 43 1009.3
20260505222730 74 310 3.5 5.2 0.00 0.00 0.00 43 1009.5
20260505222227 74 231 2.6 2.6 0.00 0.00 0.00 42 1009.5
20260505221724 74 303 3.5 6.1 0.00 0.00 0.00 41 1009.5
20260505221221 75 324 2.6 7.0 0.00 0.00 0.00 42 1009.5
20260505220718 75 182 3.5 3.5 0.00 0.00 0.00 41 1009.4
20260505220216 76 305 5.2 6.1 0.00 0.00 0.00 40 1009.5
20260505215713 75 246 4.3 6.1 0.00 0.00 0.00 40 1009.9
20260505215211 75 190 2.6 5.2 0.00 0.00 0.00 40 1009.8
20260505214708 74 312 3.5 8.7 0.00 0.00 0.00 43 1009.8
20260505214206 75 259 1.7 3.5 0.00 0.00 0.00 42 1009.8
20260505213703 74 179 1.7 7.0 0.00 0.00 0.00 41 1009.9
20260505213200 74 340 3.5 11.3 0.00 0.00 0.00 41 1010.0
20260505212655 74 249 6.1 7.8 0.00 0.00 0.00 41 1010.2
20260505212153 75 262 5.2 6.1 0.00 0.00 0.00 40 1010.1
20260505211650 75 248 6.1 8.7 0.00 0.00 0.00 40 1010.4
20260505211147 74 253 4.3 7.0 0.00 0.00 0.00 42 1010.3
20260505210644 74 261 4.3 9.6 0.00 0.00 0.00 43 1010.1
20260505210140 75 313 1.7 5.2 0.00 0.00 0.00 42 1010.4
20260505205638 75 323 9.6 11.3 0.00 0.00 0.00 40 1010.2
20260505205136 76 223 5.2 6.1 0.00 0.00 0.00 40 1010.1
20260505204627 76 215 2.6 7.0 0.00 0.00 0.00 41 1010.2
20260505204125 75 242 3.5 8.7 0.00 0.00 0.00 42 1010.5
20260505203621 75 240 1.7 13.0 0.00 0.00 0.00 41 1010.6
20260505203118 75 320 7.0 7.8 0.00 0.00 0.00 42 1010.2
20260505202614 75 307 2.6 11.3 0.00 0.00 0.00 41 1010.3
20260505202110 75 302 5.2 8.7 0.00 0.00 0.00 41 1010.4
20260505201607 75 321 5.2 13.9 0.00 0.00 0.00 42 1010.2
20260505201105 75 307 2.6 11.3 0.00 0.00 0.00 41 1010.1
20260505200602 75 281 5.2 11.3 0.00 0.00 0.00 41 1010.2
20260505200059 75 261 6.1 9.6 0.00 0.00 0.00 41 1010.4
20260505195555 75 246 11.3 14.8 0.00 0.00 0.00 40 1010.6
20260505195053 75 242 5.2 11.3 0.00 0.00 0.00 43 1010.5
20260505194550 75 280 6.1 20.0 0.00 0.00 0.00 43 1010.4
20260505194045 75 293 4.3 9.6 0.00 0.00 0.00 43 1010.5
20260505193543 75 264 6.1 8.7 0.00 0.00 0.00 43 1010.4
20260505193040 75 224 6.1 9.6 0.00 0.00 0.00 40 1010.7
20260505192538 75 299 7.0 14.8 0.00 0.00 0.00 42 1010.6
20260505192036 75 313 5.2 7.8 0.00 0.00 0.00 42 1010.5
20260505191534 75 254 4.3 8.7 0.00 0.00 0.00 42 1010.6
20260505191031 75 226 3.5 5.2 0.00 0.00 0.00 45 1010.5
20260505190526 75 268 3.5 6.1 0.00 0.00 0.00 44 1010.4
20260505190022 76 330 9.6 13.9 0.00 0.00 0.00 43 1010.7
20260505185519 75 299 4.3 13.0 0.00 0.00 0.00 44 1010.6
20260505185015 76 305 1.7 6.1 0.00 0.00 0.00 44 1010.3
20260505184513 76 311 2.6 6.1 0.00 0.00 0.00 41 1010.6
20260505184009 76 206 6.1 9.6 0.00 0.00 0.00 42 1010.7
20260505183506 76 313 3.5 13.0 0.00 0.00 0.00 44 1011.1
20260505183003 76 203 4.3 13.9 0.00 0.00 0.00 43 1010.7
20260505182500 76 270 5.2 13.0 0.00 0.00 0.00 43 1011.1
20260505181955 76 207 7.8 9.6 0.00 0.00 0.00 42 1010.8
20260505181453 76 241 1.7 9.6 0.00 0.00 0.00 40 1010.8
20260505180950 76 225 9.6 13.9 0.00 0.00 0.00 40 1010.7
20260505180446 76 132 3.5 9.6 0.00 0.00 0.00 39 1011.1
20260505175943 76 233 9.6 13.0 0.00 0.00 0.00 41 1010.6
20260505175439 76 316 5.2 13.0 0.00 0.00 0.00 42 1010.9
20260505174936 75 311 3.5 13.9 0.00 0.00 0.00 43 1010.5
20260505174433 76 282 4.3 12.2 0.00 0.00 0.00 43 1010.7
20260505173929 75 325 7.0 9.6 0.00 0.00 0.00 45 1010.7
20260505173426 76 244 4.3 8.7 0.00 0.00 0.00 42 1010.5
20260505172923 76 241 3.5 11.3 0.00 0.00 0.00 44 1010.7
20260505172421 76 321 12.2 16.5 0.00 0.00 0.00 43 1010.7
20260505171920 76 255 10.4 12.2 0.00 0.00 0.00 42 1011.2
20260505171417 76 314 7.0 11.3 0.00 0.00 0.00 43 1011.1
20260505170914 76 187 5.2 7.0 0.00 0.00 0.00 43 1011.1
20260505170411 76 243 1.7 7.8 0.00 0.00 0.00 44 1010.9
20260505165906 76 203 7.8 15.6 0.00 0.00 0.00 44 1011.4
20260505165402 76 183 3.5 8.7 0.00 0.00 0.00 43 1010.9
20260505164857 76 214 4.3 7.8 0.00 0.00 0.00 45 1011.3
20260505164354 76 310 3.5 8.7 0.00 0.00 0.00 43 1011.5
20260505163853 75 255 3.5 9.6 0.00 0.00 0.00 43 1011.4
20260505163351 75 254 3.5 12.2 0.00 0.00 0.00 46 1011.4
20260505162850 75 259 5.2 7.0 0.00 0.00 0.00 45 1011.4
20260505162345 75 276 7.0 7.8 0.00 0.00 0.00 45 1011.4
20260505161843 74 301 3.5 12.2 0.00 0.00 0.00 47 1011.3
20260505161339 74 272 4.3 6.1 0.00 0.00 0.00 44 1011.5
20260505160837 74 257 7.8 9.6 0.00 0.00 0.00 43 1011.8
20260505160335 74 313 12.2 15.6 0.00 0.00 0.00 46 1011.4
20260505153314 73 317 7.8 16.5 0.00 0.00 0.00 48 1011.8
20260505152811 74 309 12.2 18.2 0.00 0.00 0.00 47 1011.7
20260505152308 73 248 7.0 12.2 0.00 0.00 0.00 47 1012.1
20260505151807 73 241 7.0 9.6 0.00 0.00 0.00 47 1011.9
20260505151305 73 264 5.2 7.8 0.00 0.00 0.00 50 1011.8
20260505150802 73 298 7.0 15.6 0.00 0.00 0.00 50 1011.4
20260505150259 73 174 5.2 7.8 0.00 0.00 0.00 48 1011.6
20260505140229 71 263 3.5 6.1 0.00 0.00 0.00 50 1012.0
20260505130153 68 220 2.6 5.2 0.00 0.00 0.00 55 1011.9
20260505124642 67 247 2.6 2.6 0.00 0.00 0.00 55 1012.0
20260505124139 67 240 2.6 3.5 0.00 0.00 0.00 55 1012.0
20260505123635 67 170 2.6 3.5 0.00 0.00 0.00 56 1011.9
20260505123132 67 268 0.9 1.7 0.00 0.00 0.00 56 1012.0
20260505122628 66 149 0.9 2.6 0.00 0.00 0.00 57 1012.0
20260505122126 66 164 0.9 2.6 0.00 0.00 0.00 57 1012.0
20260505121622 66 313 0.0 0.9 0.00 0.00 0.00 58 1012.1
20260505121119 65 262 0.9 0.9 0.00 0.00 0.00 60 1011.8
20260505120615 64 246 0.0 0.9 0.00 0.00 0.00 62 1011.9
20260505120111 64 177 0.0 1.7 0.00 0.00 0.00 66 1012.2
20260505115605 64 110 0.9 2.6 0.00 0.00 0.00 61 1011.9
20260505115103 65 261 1.7 3.5 0.00 0.00 0.00 61 1012.2
20260505114600 64 233 0.9 1.7 0.00 0.00 0.00 64 1012.0
20260505114056 63 99 0.9 1.7 0.00 0.00 0.00 66 1011.9
20260505113553 64 224 0.0 0.9 0.00 0.00 0.00 65 1012.0
20260505113050 64 275 0.0 1.7 0.00 0.00 0.00 61 1011.7
20260505112546 63 74 0.0 2.6 0.00 0.00 0.00 61 1011.7
20260505112045 63 338 0.0 0.9 0.00 0.00 0.00 64 1011.9
20260505111543 62 279 0.0 0.0 0.00 0.00 0.00 66 1012.0
20260505111040 62 268 0.9 0.9 0.00 0.00 0.00 67 1012.0
20260505110536 62 113 0.9 1.7 0.00 0.00 0.00 71 1011.7
20260505102009 60 69 0.0 1.7 0.00 0.00 0.00 69 1011.6
20260505101507 61 198 0.9 1.7 0.00 0.00 0.00 69 1011.3
20260505101003 61 295 0.0 0.0 0.00 0.00 0.00 69 1011.4
20260505100500 59 313 0.0 1.7 0.00 0.00 0.00 71 1011.3
20260505095957 58 187 0.0 0.0 0.00 0.00 0.00 77 1011.1
20260505095453 58 257 0.9 0.9 0.00 0.00 0.00 77 1011.2
20260505094949 58 233 0.0 0.9 0.00 0.00 0.00 79 1010.9
20260505094446 58 100 0.9 1.7 0.00 0.00 0.00 74 1010.8
20260505093943 58 68 0.0 5.2 0.00 0.00 0.00 77 1010.8
20260505093439 57 165 0.0 0.9 0.00 0.00 0.00 79 1010.7
20260505092937 57 231 1.7 2.6 0.00 0.00 0.00 72 1010.8
20260505092434 58 169 0.0 0.0 0.00 0.00 0.00 78 1010.7
20260505091932 58 170 0.9 1.7 0.00 0.00 0.00 76 1010.6
20260505091429 58 237 0.9 1.7 0.00 0.00 0.00 78 1010.5
20260505090927 59 306 0.9 0.9 0.00 0.00 0.00 75 1010.6
20260505090425 60 151 0.0 0.0 0.00 0.00 0.00 72 1010.5
20260505085922 61 260 0.0 0.0 0.00 0.00 0.00 69 1010.4
20260505085420 62 187 1.7 1.7 0.00 0.00 0.00 67 1010.5
20260505084918 63 183 1.7 3.5 0.00 0.00 0.00 65 1010.6
20260505084416 61 249 0.0 6.1 0.00 0.00 0.00 63 1010.3
20260505083914 59 162 0.0 0.9 0.00 0.00 0.00 72 1010.4
20260505083411 59 162 1.7 1.7 0.00 0.00 0.00 74 1010.4
20260505082907 59 229 0.9 1.7 0.00 0.00 0.00 74 1010.3